W2GLD-13 Weather Reports


time (UTC)temp
C
wind
direction
speed
KPH
gust
KPH
rain 1hr
cm
rain 24hr
cm
rain mn
cm
humidity
%
barometer
mb
20260903060040 22 0.0 0.0 0.00 0.00 0.00 91 1012.7
20260903060005 23 0.0 0.0 0.00 0.00 0.00 88 1010.6
20260903054505 23 0.0 0.0 0.00 0.00 0.00 88 1010.6
20260903053005 23 0.0 0.0 0.00 0.00 0.00 88 1010.6
20260903051505 23 0.0 0.0 0.00 0.00 0.00 88 1010.6
20260903050020 23 0.0 0.0 0.00 0.00 0.00 88 1012.5
20260903050005 24 0.0 4.8 0.00 0.00 0.00 84 1010.1
20260903044506 24 0.0 4.8 0.00 0.00 0.00 84 1010.1
20260903043006 24 0.0 4.8 0.00 0.00 0.00 84 1010.1
20260903041506 24 0.0 4.8 0.00 0.00 0.00 84 1010.1
20260903040040 24 0.0 4.8 0.00 0.00 0.00 84 1012.1
20260903040008 25 0.0 6.4 0.00 0.00 0.00 77 1010.1
20260903034505 25 0.0 6.4 0.00 0.00 0.00 77 1010.1
20260903033005 25 0.0 6.4 0.00 0.00 0.00 77 1010.1
20260903031505 25 0.0 6.4 0.00 0.00 0.00 77 1010.1
20260903030039 25 0.0 6.4 0.00 0.00 0.00 77 1012.0
20260903030006 25 0.0 0.0 0.00 0.00 0.00 87 1009.9
20260903024505 25 0.0 0.0 0.00 0.00 0.00 87 1009.9
20260903023006 25 0.0 0.0 0.00 0.00 0.00 87 1009.9
20260903021506 25 0.0 0.0 0.00 0.00 0.00 87 1009.9
20260903020019 25 0.0 0.0 0.00 0.00 0.00 87 1011.8
20260903020006 27 0.0 0.0 0.00 0.00 0.00 82 1009.6
20260903014505 27 0.0 0.0 0.00 0.00 0.00 82 1009.6
20260903013005 27 0.0 0.0 0.00 0.00 0.00 82 1009.6
20260903011505 27 0.0 0.0 0.00 0.00 0.00 82 1009.6
20260903010019 27 0.0 0.0 0.00 0.00 0.00 82 1011.4
20260903010005 29 0.0 3.2 0.00 0.00 0.00 75 1009.5
20260903004505 29 0.0 3.2 0.00 0.00 0.00 75 1009.5
20260903003005 29 0.0 3.2 0.00 0.00 0.00 75 1009.5
20260903001505 29 0.0 3.2 0.00 0.00 0.00 75 1009.5
20260903000018 29 0.0 3.2 0.00 0.00 0.00 75 1011.5
20260903000006 31 0.0 8.0 0.00 0.00 0.00 67 1009.1
20260902234506 31 0.0 8.0 0.00 0.00 0.00 67 1009.1
20260902233006 31 0.0 8.0 0.00 0.00 0.00 67 1009.1
20260902231505 31 0.0 8.0 0.00 0.00 0.00 67 1009.1
20260902230019 31 0.0 8.0 0.00 0.00 0.00 67 1011.2
20260902230005 31 360 0.0 14.5 0.00 0.00 0.00 66 1009.1
20260902224505 31 360 0.0 14.5 0.00 0.00 0.00 66 1009.1
20260902223005 31 360 0.0 14.5 0.00 0.00 0.00 66 1009.1
20260902221505 31 360 0.0 14.5 0.00 0.00 0.00 66 1009.1
20260902220058 31 0 1.6 14.5 0.00 0.00 0.00 66 1011.3
20260902220005 32 360 0.0 9.7 0.00 0.00 0.00 61 1009.5
20260902214506 32 360 0.0 9.7 0.00 0.00 0.00 61 1009.5
20260902213006 32 360 0.0 9.7 0.00 0.00 0.00 61 1009.5
20260902211506 32 360 0.0 9.7 0.00 0.00 0.00 61 1009.5
20260902210018 32 0 1.6 9.7 0.00 0.00 0.00 61 1011.6
20260902210005 32 360 0.0 14.5 0.00 0.00 0.00 62 1010.4
20260902204505 32 360 0.0 14.5 0.00 0.00 0.00 62 1010.4
20260902203005 32 360 0.0 14.5 0.00 0.00 0.00 62 1010.4
20260902201505 32 360 0.0 14.5 0.00 0.00 0.00 62 1010.4
20260902200038 32 0 1.6 14.5 0.00 0.00 0.00 62 1012.5
20260902200005 32 360 0.0 9.7 0.00 0.00 0.00 60 1010.8
20260902194505 32 360 0.0 9.7 0.00 0.00 0.00 60 1010.8
20260902193005 32 360 0.0 9.7 0.00 0.00 0.00 60 1010.8
20260902191506 32 360 0.0 9.7 0.00 0.00 0.00 60 1010.8
20260902190018 32 0 1.6 9.7 0.00 0.00 0.00 60 1012.9
20260902190005 31 360 0.0 8.0 0.00 0.00 0.00 64 1010.9
20260902184505 31 360 0.0 8.0 0.00 0.00 0.00 64 1010.9
20260902183005 31 360 0.0 8.0 0.00 0.00 0.00 64 1010.9
20260902181505 31 360 0.0 8.0 0.00 0.00 0.00 64 1010.9
20260902180020 31 0 1.6 8.0 0.00 0.00 0.00 64 1013.0
20260902180007 30 360 0.0 6.4 0.00 0.00 0.00 68 1011.9
20260902174505 30 360 0.0 6.4 0.00 0.00 0.00 68 1011.9
20260902173005 30 360 0.0 6.4 0.00 0.00 0.00 68 1011.9
20260902171506 30 360 0.0 6.4 0.00 0.00 0.00 68 1011.9
20260902170020 30 0 1.6 6.4 0.00 0.00 0.00 68 1013.9
20260902170006 29 360 0.0 12.9 0.00 0.00 0.00 71 1011.9
20260902164506 29 360 0.0 12.9 0.00 0.00 0.00 71 1011.9
20260902163005 29 360 0.0 12.9 0.00 0.00 0.00 71 1011.9
20260902161505 29 360 0.0 12.9 0.00 0.00 0.00 71 1011.9
20260902160040 29 0 1.6 12.9 0.00 0.00 0.00 71 1013.9
20260902160008 27 0.0 8.0 0.00 0.00 0.00 77 1012.0
20260902154505 27 0.0 8.0 0.00 0.00 0.00 77 1012.0
20260902153005 27 0.0 8.0 0.00 0.00 0.00 77 1012.0
20260902151505 27 0.0 8.0 0.00 0.00 0.00 77 1012.0
20260902150040 27 0.0 8.0 0.00 0.00 0.00 77 1013.9
20260902150005 25 0.0 3.2 0.00 0.00 0.00 86 1011.8
20260902144506 25 0.0 3.2 0.00 0.00 0.00 86 1011.8
20260902143006 25 0.0 3.2 0.00 0.00 0.00 86 1011.8
20260902141505 25 0.0 3.2 0.00 0.00 0.00 86 1011.8
20260902140020 26 0.0 3.2 0.00 0.00 0.00 86 1013.6
20260902140005 23 0.0 3.2 0.00 0.00 0.00 94 1012.1
20260902134505 23 0.0 3.2 0.00 0.00 0.00 94 1012.1
20260902133005 23 0.0 3.2 0.00 0.00 0.00 94 1012.1
20260902131505 23 0.0 3.2 0.00 0.00 0.00 94 1012.1
20260902130019 23 0.0 3.2 0.00 0.00 0.00 94 1013.8
20260902130005 22 0.0 3.2 0.00 0.00 0.00 96 1012.2
20260902124505 22 0.0 3.2 0.00 0.00 0.00 96 1012.2
20260902123006 22 0.0 3.2 0.00 0.00 0.00 96 1012.2
20260902121506 22 0.0 3.2 0.00 0.00 0.00 96 1012.2
20260902120040 22 0.0 3.2 0.00 0.00 0.00 96 1014.0
20260902120006 23 0.0 4.8 0.00 0.00 0.00 96 1012.2
20260902114505 23 0.0 4.8 0.00 0.00 0.00 96 1012.2
20260902113005 23 0.0 4.8 0.00 0.00 0.00 96 1012.2
20260902111505 23 0.0 4.8 0.00 0.00 0.00 96 1012.2
20260902110019 23 0.0 4.8 0.00 0.00 0.00 96 1014.2
20260902110007 23 0.0 1.6 0.00 0.00 0.00 96 1011.7
20260902104505 23 0.0 1.6 0.00 0.00 0.00 96 1011.7
20260902103005 23 0.0 1.6 0.00 0.00 0.00 96 1011.7
20260902101506 23 0.0 1.6 0.00 0.00 0.00 96 1011.7
20260902100019 23 0.0 1.6 0.00 0.00 0.00 96 1013.8
20260902100006 23 0.0 4.8 0.00 0.00 0.00 96 1011.5
20260902094506 23 0.0 4.8 0.00 0.00 0.00 96 1011.5
20260902093007 23 0.0 4.8 0.00 0.00 0.00 96 1011.5
20260902091505 23 0.0 4.8 0.00 0.00 0.00 96 1011.5
20260902090019 23 0.0 4.8 0.00 0.00 0.00 96 1013.6
20260902090005 23 0.0 0.0 0.00 0.00 0.00 96 1011.5
20260902084505 23 0.0 0.0 0.00 0.00 0.00 96 1011.5
20260902083005 23 0.0 0.0 0.00 0.00 0.00 96 1011.5
20260902081505 23 0.0 0.0 0.00 0.00 0.00 96 1011.5
20260902080019 23 0.0 0.0 0.00 0.00 0.00 96 1013.5
20260902080005 23 0.0 0.0 0.00 0.00 0.00 96 1011.3
20260902074506 23 0.0 0.0 0.00 0.00 0.00 96 1011.3
20260902073006 23 0.0 0.0 0.00 0.00 0.00 96 1011.3
20260902071505 23 0.0 0.0 0.00 0.00 0.00 96 1011.3
20260902070018 23 0.0 0.0 0.00 0.00 0.00 96 1013.3
20260902070007 22 0.0 0.0 0.00 0.00 0.00 95 1011.5
20260902064506 22 0.0 0.0 0.00 0.00 0.00 95 1011.5
20260902063005 22 0.0 0.0 0.00 0.00 0.00 95 1011.5
20260902061505 22 0.0 0.0 0.00 0.00 0.00 95 1011.5